CW5752 Weather Reports


time (UTC)temp
C
wind
direction
speed
KPH
gust
KPH
rain 1hr
cm
rain 24hr
cm
rain mn
cm
humidity
%
barometer
mb
20260904214023 37 206 1.6 6.4 0.00 0.00 0.00 44 1012.3
20260904213024 37 271 0.0 6.4 0.00 0.00 0.00 43 1012.5
20260904212020 37 242 1.6 8.0 0.00 0.00 0.00 43 1012.6
20260904211022 37 282 3.2 9.7 0.00 0.00 0.00 44 1012.7
20260904210022 37 201 1.6 9.7 0.00 0.00 0.00 43 1012.8
20260904205022 37 248 0.0 8.0 0.00 0.00 0.00 47 1012.9
20260904204022 34 0.0 0.0 0.00 0.00 0.00 58 1012.9
20260904203042 35 278 0.0 3.2 0.00 0.00 0.00 48 1013.0
20260904202017 36 278 1.6 8.0 0.00 0.00 0.00 47 1013.2
20260904201017 37 276 1.6 9.7 0.00 0.00 0.00 46 1013.4
20260904200022 37 179 0.0 6.4 0.00 0.00 0.00 44 1013.5
20260904195042 37 179 0.0 8.0 0.00 0.00 0.00 43 1013.7
20260904194022 37 202 3.2 16.1 0.00 0.00 0.00 45 1013.8
20260904193020 37 262 0.0 8.0 0.00 0.00 0.00 45 1014.1
20260904192022 36 276 1.6 8.0 0.00 0.00 0.00 43 1014.1
20260904191037 36 277 0.0 9.7 0.00 0.00 0.00 48 1014.3
20260904190022 36 271 0.0 6.4 0.00 0.00 0.00 47 1014.5
20260904185022 36 283 3.2 12.9 0.00 0.00 0.00 50 1014.6
20260904184022 36 265 0.0 9.7 0.00 0.00 0.00 47 1014.6
20260904183022 36 268 3.2 11.3 0.00 0.00 0.00 48 1014.7
20260904182022 36 274 3.2 11.3 0.00 0.00 0.00 53 1014.7
20260904181022 35 269 0.0 3.2 0.00 0.00 0.00 57 1014.8
20260904180017 35 270 1.6 9.7 0.00 0.00 0.00 48 1014.9
20260904175042 35 273 0.0 9.7 0.00 0.00 0.00 51 1014.9
20260904174022 35 198 3.2 11.3 0.00 0.00 0.00 48 1015.0
20260904173022 36 240 1.6 17.7 0.00 0.00 0.00 52 1015.1
20260904172022 35 175 1.6 11.3 0.00 0.00 0.00 49 1015.3
20260904171042 36 193 3.2 11.3 0.00 0.00 0.00 49 1015.4
20260904170037 36 224 3.2 11.3 0.00 0.00 0.00 49 1015.5
20260904165017 35 236 1.6 11.3 0.00 0.00 0.00 52 1015.7
20260904164022 35 251 3.2 12.9 0.00 0.00 0.00 51 1015.7
20260904163022 35 254 3.2 9.7 0.00 0.00 0.00 52 1015.6
20260904162022 34 282 0.0 9.7 0.00 0.00 0.00 55 1015.7
20260904161022 34 254 1.6 6.4 0.00 0.00 0.00 54 1015.9
20260904160022 33 273 3.2 14.5 0.00 0.00 0.00 56 1016.0
20260904155017 33 275 4.8 12.9 0.00 0.00 0.00 54 1015.9
20260904154022 33 0.0 0.0 0.00 0.00 0.00 57 1015.9
20260904153022 32 0.0 0.0 0.00 0.00 0.00 61 1016.0
20260904152022 32 0.0 0.0 0.00 0.00 0.00 63 1015.9
20260904151023 32 0.0 0.0 0.00 0.00 0.00 61 1016.0
20260904150022 31 0.0 0.0 0.00 0.00 0.00 65 1015.8
20260904145017 31 0.0 0.0 0.00 0.00 0.00 65 1015.7
20260904144017 31 0.0 0.0 0.00 0.00 0.00 65 1015.7
20260904143022 30 0.0 0.0 0.00 0.00 0.00 70 1015.7
20260904142022 30 0.0 0.0 0.00 0.00 0.00 70 1015.6
20260904141022 29 0.0 0.0 0.00 0.00 0.00 74 1015.6
20260904140042 28 0.0 0.0 0.00 0.00 0.00 75 1015.7
20260904135022 28 0.0 0.0 0.00 0.00 0.00 78 1015.6
20260904134017 27 0.0 0.0 0.00 0.00 0.00 80 1015.5
20260904133022 26 0.0 0.0 0.00 0.00 0.00 82 1015.6
20260904132022 26 0.0 0.0 0.00 0.00 0.00 84 1015.6
20260904131021 26 0.0 0.0 0.00 0.00 0.00 86 1015.6
20260904130022 25 0.0 0.0 0.00 0.00 0.00 90 1015.5
20260904125022 24 0.0 0.0 0.00 0.00 0.00 90 1015.4
20260904124022 24 0.0 0.0 0.00 0.00 0.00 91 1015.4
20260904123016 23 0.0 0.0 0.00 0.00 0.00 92 1015.2
20260904122021 23 0.0 0.0 0.00 0.00 0.00 92 1015.1
20260904121022 23 0.0 0.0 0.00 0.00 0.00 92 1015.1
20260904120022 22 0.0 0.0 0.00 0.00 0.00 92 1015.1
20260904115021 23 0.0 0.0 0.00 0.00 0.00 92 1014.9
20260904114022 23 0.0 0.0 0.00 0.00 0.00 92 1014.9
20260904113017 23 0.0 0.0 0.00 0.00 0.00 92 1014.7
20260904112022 22 0.0 0.0 0.00 0.00 0.00 92 1014.6
20260904111022 22 0.0 0.0 0.00 0.00 0.00 92 1014.6
20260904110022 22 0.0 0.0 0.00 0.00 0.00 91 1014.6
20260904105021 22 196 0.0 3.2 0.00 0.00 0.00 90 1014.5
20260904104022 23 0.0 0.0 0.00 0.00 0.00 92 1014.3
20260904103022 23 0.0 0.0 0.00 0.00 0.00 92 1014.3
20260904102017 23 0.0 0.0 0.00 0.00 0.00 92 1014.4
20260904101021 23 0.0 0.0 0.00 0.00 0.00 92 1014.4
20260904100022 23 0.0 0.0 0.00 0.00 0.00 92 1014.4
20260904095025 23 0.0 0.0 0.00 0.00 0.00 90 1014.4
20260904094022 23 0.0 0.0 0.00 0.00 0.00 91 1014.3
20260904093022 23 0.0 0.0 0.00 0.00 0.00 90 1014.3
20260904092016 23 0.0 0.0 0.00 0.00 0.00 90 1014.2
20260904091017 23 0.0 0.0 0.00 0.00 0.00 90 1014.1
20260904090024 23 0.0 0.0 0.00 0.00 0.00 90 1014.1
20260904085022 23 0.0 0.0 0.00 0.00 0.00 90 1014.2
20260904084022 23 0.0 0.0 0.00 0.00 0.00 90 1014.2
20260904083020 23 0.0 0.0 0.00 0.00 0.00 90 1014.1
20260904082022 23 0.0 0.0 0.00 0.00 0.00 89 1014.2
20260904081016 23 0.0 0.0 0.00 0.00 0.00 90 1014.1
20260904080021 23 0.0 0.0 0.00 0.00 0.00 90 1014.0
20260904075022 24 0.0 0.0 0.00 0.00 0.00 89 1013.9
20260904074022 24 0.0 0.0 0.00 0.00 0.00 89 1013.9
20260904073022 23 0.0 0.0 0.00 0.00 0.00 90 1013.9
20260904072021 23 0.0 0.0 0.00 0.00 0.00 88 1014.0
20260904071016 25 0.0 0.0 0.00 0.00 0.00 86 1014.0
20260904070016 25 0.0 0.0 0.00 0.00 0.00 85 1014.0
20260904065026 25 0.0 0.0 0.00 0.00 0.00 87 1014.0
20260904064022 25 0.0 0.0 0.00 0.00 0.00 87 1014.0
20260904063042 25 0.0 0.0 0.00 0.00 0.00 86 1014.1
20260904062022 25 0.0 0.0 0.00 0.00 0.00 86 1014.1
20260904061021 25 0.0 0.0 0.00 0.00 0.00 86 1014.2
20260904060018 25 0.0 0.0 0.00 0.00 0.00 86 1014.2
20260904055022 25 0.0 0.0 0.00 0.00 0.00 87 1014.2
20260904054021 25 0.0 0.0 0.00 0.00 0.00 87 1014.2
20260904053022 25 0.0 0.0 0.00 0.00 0.00 86 1014.1
20260904052022 25 0.0 0.0 0.00 0.00 0.00 85 1014.0
20260904051022 25 0.0 0.0 0.00 0.00 0.00 84 1014.1
20260904050021 25 0.0 0.0 0.00 0.00 0.00 84 1014.0
20260904045022 25 0.0 0.0 0.00 0.00 0.00 84 1014.0
20260904044022 25 0.0 0.0 0.00 0.00 0.00 84 1014.1
20260904043037 26 0.0 0.0 0.00 0.00 0.00 83 1014.1
20260904042022 26 0.0 0.0 0.00 0.00 0.00 82 1014.0
20260904041022 26 0.0 0.0 0.00 0.00 0.00 83 1014.0
20260904040022 26 0.0 0.0 0.00 0.00 0.00 79 1014.0
20260904035042 26 0.0 0.0 0.00 0.00 0.00 79 1014.1
20260904034022 26 0.0 0.0 0.00 0.00 0.00 80 1014.0
20260904033017 27 0.0 0.0 0.00 0.00 0.00 80 1014.1
20260904032022 27 0.0 0.0 0.00 0.00 0.00 78 1014.1
20260904031022 27 0.0 0.0 0.00 0.00 0.00 79 1014.2
20260904030022 27 0.0 0.0 0.00 0.00 0.00 80 1014.2
20260904025042 27 0.0 0.0 0.00 0.00 0.00 79 1014.2
20260904024022 27 0.0 0.0 0.00 0.00 0.00 78 1014.0
20260904023102 27 0.0 0.0 0.00 0.00 0.00 77 1014.0
20260904022017 27 0.0 0.0 0.00 0.00 0.00 76 1013.8
20260904021022 27 0.0 0.0 0.00 0.00 0.00 76 1013.8
20260904020022 28 0.0 0.0 0.00 0.00 0.00 75 1013.7
20260904015042 28 0.0 0.0 0.00 0.00 0.00 76 1013.7
20260904014022 28 0.0 0.0 0.00 0.00 0.00 76 1013.5
20260904013022 28 0.0 0.0 0.00 0.00 0.00 74 1013.4
20260904012017 28 0.0 0.0 0.00 0.00 0.00 73 1013.3
20260904011025 29 0.0 0.0 0.00 0.00 0.00 71 1013.2
20260904010042 29 0.0 0.0 0.00 0.00 0.00 71 1013.1
20260904005022 29 0.0 0.0 0.00 0.00 0.00 70 1013.0
20260904004042 29 0.0 0.0 0.00 0.00 0.00 69 1013.0
20260904003040 30 0.0 0.0 0.00 0.00 0.00 68 1012.9
20260904002023 31 0.0 0.0 0.00 0.00 0.00 63 1012.9
20260904001017 31 0.0 0.0 0.00 0.00 0.00 59 1012.8
20260904000022 32 0.0 0.0 0.00 0.00 0.00 57 1012.7
20260903235024 33 0.0 4.8 0.00 0.00 0.00 55 1012.7
20260903234022 33 182 0.0 3.2 0.00 0.00 0.00 54 1012.7
20260903233103 34 182 0.0 4.8 0.00 0.00 0.00 52 1012.7
20260903232022 34 181 0.0 6.4 0.00 0.00 0.00 50 1012.7
20260903231017 35 182 0.0 6.4 0.00 0.00 0.00 49 1012.5
20260903230017 35 191 0.0 6.4 0.00 0.00 0.00 47 1012.4
20260903225022 35 188 0.0 3.2 0.00 0.00 0.00 48 1012.5
20260903224022 36 193 0.0 3.2 0.00 0.00 0.00 48 1012.5
20260903223022 36 0.0 3.2 0.00 0.00 0.00 46 1012.5
20260903222022 36 189 0.0 1.6 0.00 0.00 0.00 43 1012.5
20260903221022 36 0.0 3.2 0.00 0.00 0.00 44 1012.6
20260903220017 36 197 0.0 8.0 0.00 0.00 0.00 45 1012.8
20260903215022 36 209 0.0 1.6 0.00 0.00 0.00 44 1012.8